Regional Weather Roundup
Issued by NWS

Home | Current Version | Previous Version | Text Only | Print | Product List | Glossary On
Versions: 1 2 3 4 5 6 7 8 9 10 11 12 13 14 15 16 17 18 19 20 21 22 23 24 25 26 27 28 29 30 31 32 33 34 35 36 37 38 39 40 41 42 43 44 45 46 47 48 49 50
000
ASUS46 KPQR 050610
RWROR

OREGON REGIONAL WEATHER ROUNDUP
NATIONAL WEATHER SERVICE PORTLAND OR
1100 PM PDT TUE AUG 04 2015

NOTE: "FAIR" INDICATES FEW OR NO CLOUDS BELOW 12,000 FEET WITH
NO SIGNIFICANT WEATHER AND/OR OBSTRUCTIONS TO VISIBILITY.

ORZ001>013-050700-
NORTHWEST OREGON


CITY           SKY/WX    TMP DP  RH WIND       PRES   REMARKS
ASTORIA        MOCLDY    60  54  80 W3        30.08S
6HR MIN TEMP:  60; 6HR MAX TEMP:  69;

NEWPORT        CLEAR     52  50  93 NW5       30.09S
PORTLAND       PTCLDY    63  51  65 NW7       30.03R
6HR MIN TEMP:  63; 6HR MAX TEMP:  82;

VANCOUVER WA   PTCLDY    63  50  62 N7        30.02S
6HR MIN TEMP:  63; 6HR MAX TEMP:  81;

SCAPPOOSE      PTCLDY    62  50  64 N9        30.02S
6HR MIN TEMP:  62; 6HR MAX TEMP:  82;

HILLSBORO      PTCLDY    59  50  72 NW9       30.03R
6HR MIN TEMP:  59; 6HR MAX TEMP:  82;

AURORA         CLEAR     62  50  64 N9        30.04R
6HR MIN TEMP:  62; 6HR MAX TEMP:  84;

MCMINNVILLE    CLEAR     63  49  60 N3        30.03R
6HR MIN TEMP:  63; 6HR MAX TEMP:  85;

SALEM          CLEAR     63  50  62 NW9       30.01R
6HR MIN TEMP:  63; 6HR MAX TEMP:  85;

CORVALLIS      CLEAR     61  48  63 NW16      30.03R
EUGENE         PTCLDY    65  47  52 NW3       30.01R
6HR MIN TEMP:  65; 6HR MAX TEMP:  86;

$$

ORZ021-028-050700-
SOUTHWEST OREGON


CITY           SKY/WX    TMP DP  RH WIND       PRES   REMARKS
NORTH BEND     CLEAR     55  55 100 NW5       30.09R
6HR MIN TEMP:  55; 6HR MAX TEMP:  64;

BROOKINGS      CLOUDY    59  59 100 CALM      30.07S
ROSEBURG       CLEAR     70  46  42 CALM      30.00R
6HR MIN TEMP:  69; 6HR MAX TEMP:  90;

SEXTON SUMMIT  CLEAR     58  49  72 N7        30.08R
6HR MIN TEMP:  58; 6HR MAX TEMP:  75;

MEDFORD        MOCLDY    78  51  38 NW6       29.96R
6HR MIN TEMP:  78; 6HR MAX TEMP:  94;

$$

ORZ014>016-041-050700-
COLUMBIA GORGE


CITY           SKY/WX    TMP DP  RH WIND       PRES   REMARKS
TROUTDALE      CLEAR     64  51  62 NW7       30.01R
6HR MIN TEMP:  64; 6HR MAX TEMP:  84;

THE DALLES     CLEAR     72  45  37 W10       29.90R
6HR MIN TEMP:  72; 6HR MAX TEMP:  89;

$$

ORZ029>031-041-044-049-050-061>064-502-503-505>511-050700-
EASTERN OREGON


CITY           SKY/WX    TMP DP  RH WIND       PRES   REMARKS
REDMOND        CLEAR     63  39  41 NE5       30.02R
6HR MIN TEMP:  63; 6HR MAX TEMP:  88;

BEND           CLEAR     63  41  45 CALM      30.04R
PRINEVILLE     CLEAR     63  36  36 N6        30.02R
KLAMATH FALLS  LGT RAIN  67  50  54 SW17      30.05F
6HR MIN TEMP:  67; 6HR MAX TEMP:  85; 6HR PCP: TRACE;

LAKEVIEW       CLOUDY    66  36  32 SE8       30.10R
HERMISTON      CLEAR     74  42  31 SW16      29.85R
6HR MIN TEMP:  74; 6HR MAX TEMP:  93;

PENDLETON      PTCLDY    74  35  24 W17G24    29.89R
6HR MIN TEMP:  74; 6HR MAX TEMP:  90;

JOHN DAY       CLEAR     71  33  24 NW5       30.01R
MEACHAM        PTCLDY    56  39  53 CALM      30.01S
6HR MIN TEMP:  56; 6HR MAX TEMP:  81;

LA GRANDE      MOCLDY    73  34  23 NW12      29.93S
6HR MIN TEMP:  73; 6HR MAX TEMP:  88;

BAKER CITY     CLEAR     65  42  43 W7        29.96R
6HR MIN TEMP:  63; 6HR MAX TEMP:  86;

BURNS          PTCLDY    68  44  42 W8        29.99R
6HR MIN TEMP:  66; 6HR MAX TEMP:  88;

ROME             N/A     79  43  27 NW10      29.96S
6HR MIN TEMP:  79; 6HR MAX TEMP:  92;

ONTARIO        PTCLDY    75  55  49 NE3       29.83R
6HR MIN TEMP:  73; 6HR MAX TEMP:  93;

$$



USA.gov is the U.S. government's official web portal to all federal, state and local government web resources and services.